TimeEST,TemperatureF,Dew PointF,Humidity,Sea Level PressureIn,VisibilityMPH,Wind Direction,Wind SpeedMPH,Gust SpeedMPH,PrecipitationIn,Events,Conditions,WindDirDegrees,DateUTC
12:08 AM,17.6,10.4,73,30.03,9.0,WSW,11.5,-,N/A,,Overcast,240,2013-02-04 05:08:00
12:53 AM,19.0,12.0,74,30.06,9.0,WSW,10.4,-,N/A,,Overcast,240,2013-02-04 05:53:00
1:04 AM,19.4,12.2,74,30.02,10.0,WSW,9.2,-,N/A,,Overcast,240,2013-02-04 06:04:00
1:53 AM,19.0,14.0,81,30.06,2.5,WSW,9.2,-,0.00,Snow,Light Snow,250,2013-02-04 06:53:00
2:00 AM,19.4,14.0,80,30.02,3.0,WSW,9.2,-,0.00,Snow,Light Snow,250,2013-02-04 07:00:00
2:53 AM,19.9,15.1,81,30.05,2.0,WSW,9.2,-,0.00,Snow,Light Snow,250,2013-02-04 07:53:00
3:35 AM,19.4,15.8,86,30.00,1.5,SSW,5.8,-,0.00,Snow,Light Snow,210,2013-02-04 08:35:00
3:53 AM,19.0,15.1,85,30.04,2.0,SW,5.8,-,0.00,Snow,Light Snow,220,2013-02-04 08:53:00
4:00 AM,19.4,15.8,86,29.99,1.8,SSW,5.8,-,0.00,Snow,Light Snow,210,2013-02-04 09:00:00
4:10 AM,19.4,15.8,86,29.98,2.0,SSW,5.8,-,0.00,Snow,Light Snow,210,2013-02-04 09:10:00
5:53 AM,19.9,16.0,85,29.99,1.5,South,5.8,-,0.02,Snow,Light Snow,170,2013-02-04 10:53:00
6:31 AM,19.4,15.8,86,29.94,1.0,South,6.9,-,0.02,Snow,Light Snow,170,2013-02-04 11:31:00
6:53 AM,19.9,17.1,89,29.97,1.0,SSE,5.8,-,0.03,Snow,Light Snow,160,2013-02-04 11:53:00
7:43 AM,19.4,17.6,93,29.93,0.8,SE,4.6,-,0.03,Snow,Light Snow,140,2013-02-04 12:43:00
7:53 AM,19.9,17.1,89,29.97,0.8,SE,4.6,-,0.04,Snow,Light Snow,130,2013-02-04 12:53:00
8:02 AM,19.4,17.6,93,29.93,0.5,ESE,4.6,-,0.01,Fog-Snow,Snow,110,2013-02-04 13:02:00
8:36 AM,19.4,17.6,93,29.93,0.5,East,4.6,-,0.02,Fog-Snow,Snow,100,2013-02-04 13:36:00
8:45 AM,19.4,17.6,93,29.94,0.8,East,3.5,-,0.03,Snow,Light Snow,100,2013-02-04 13:45:00
8:53 AM,19.9,17.1,89,29.98,0.8,ESE,3.5,-,0.03,Snow,Light Snow,110,2013-02-04 13:53:00
9:05 AM,21.2,17.6,86,29.94,0.5,East,4.6,-,0.00,Fog-Snow,Snow,100,2013-02-04 14:05:00
9:53 AM,21.0,17.1,85,29.95,0.5,East,8.1,-,0.01,Fog-Snow,Snow,90,2013-02-04 14:53:00
10:02 AM,21.2,17.6,86,29.90,1.0,East,8.1,-,0.00,Snow,Light Snow,100,2013-02-04 15:02:00
10:18 AM,21.2,17.6,86,29.89,2.5,ESE,10.4,-,0.00,Snow,Light Snow,110,2013-02-04 15:18:00
10:48 AM,23.0,17.6,80,29.89,1.2,East,10.4,-,0.00,Snow,Light Snow,100,2013-02-04 15:48:00
10:53 AM,23.0,18.0,81,29.93,1.2,ESE,11.5,-,0.00,Snow,Light Snow,110,2013-02-04 15:53:00
11:07 AM,23.0,17.6,80,29.89,0.5,ESE,10.4,-,0.01,Snow,Snow,110,2013-02-04 16:07:00
11:22 AM,24.8,19.4,80,29.88,1.0,East,9.2,-,0.01,Snow,Light Snow,90,2013-02-04 16:22:00
11:32 AM,24.8,19.4,80,29.89,2.0,East,8.1,-,0.01,Snow,Light Snow,90,2013-02-04 16:32:00
11:43 AM,23.0,19.4,86,29.89,4.0,East,8.1,-,0.01,Snow,Light Snow,90,2013-02-04 16:43:00
11:53 AM,23.0,19.0,85,29.92,6.0,East,8.1,-,0.01,,Overcast,90,2013-02-04 16:53:00
12:53 PM,24.1,19.0,81,29.88,2.5,ESE,6.9,-,0.00,Snow,Light Snow,110,2013-02-04 17:53:00
1:04 PM,24.8,19.4,80,29.85,5.0,ESE,4.6,-,0.00,,Haze,110,2013-02-04 18:04:00
1:53 PM,25.0,19.0,78,29.87,10.0,East,8.1,-,0.00,,Overcast,90,2013-02-04 18:53:00
2:09 PM,24.8,19.4,80,29.83,10.0,East,5.8,-,N/A,,Overcast,100,2013-02-04 19:09:00
2:53 PM,25.0,19.0,78,29.87,7.0,ENE,5.8,-,N/A,,Overcast,60,2013-02-04 19:53:00
3:53 PM,25.0,19.0,78,29.88,7.0,ENE,4.6,-,N/A,,Overcast,60,2013-02-04 20:53:00
4:53 PM,25.0,19.9,81,29.88,6.0,NE,5.8,-,N/A,,Haze,50,2013-02-04 21:53:00
5:15 PM,24.8,19.4,80,29.83,6.0,NE,5.8,-,N/A,,Overcast,40,2013-02-04 22:15:00
5:53 PM,24.1,19.9,84,29.87,6.0,NE,4.6,-,N/A,,Overcast,40,2013-02-04 22:53:00
7:46 PM,21.2,17.6,86,29.88,7.0,North,5.8,-,N/A,,Mostly Cloudy,10,2013-02-05 00:46:00
7:53 PM,21.9,18.0,85,29.93,7.0,North,4.6,-,N/A,,Scattered Clouds,360,2013-02-05 00:53:00
8:19 PM,19.4,17.6,93,29.90,5.0,North,4.6,-,N/A,,Mostly Cloudy,350,2013-02-05 01:19:00
8:46 PM,21.2,17.6,86,29.90,5.0,Calm,Calm,-,N/A,,Overcast,0,2013-02-05 01:46:00
8:53 PM,19.9,17.1,89,29.94,5.0,Calm,Calm,-,N/A,,Overcast,0,2013-02-05 01:53:00
9:03 PM,21.2,17.6,86,29.91,4.0,Calm,Calm,-,N/A,,Overcast,0,2013-02-05 02:03:00
9:53 PM,21.0,19.0,92,29.94,4.0,Calm,Calm,-,N/A,,Overcast,0,2013-02-05 02:53:00
10:53 PM,21.9,18.0,85,29.96,5.0,NW,5.8,-,N/A,,Overcast,320,2013-02-05 03:53:00
11:42 PM,21.2,17.6,86,29.91,5.0,NNE,6.9,-,N/A,,Overcast,20,2013-02-05 04:42:00
11:53 PM,21.9,18.0,85,29.94,5.0,NNE,4.6,-,N/A,,Mostly Cloudy,30,2013-02-05 04:53:00